Location: Boitzum
(52.1496°N, 9.6943°E)
Time: 23:53:10
(UTC+00:00)

SL-23 DEB - Pass Details

Date: 13 January 2026
Orbit: 423 x 3435 km, 51.4° (Epoch: 9 February)

Event Time Altitude Azimuth Distance (km) Brightness Sun altitude
Exits shadow 06:36:22 - 248° (WSW) 2,379 6.7 -7.2°
Reaches altitude 10° 06:38:19 10° 245° (WSW) 1,509 5.7 -6.9°
Maximum altitude 06:41:24 61° 164° (SSE) 513 3.9 -6.5°
Drops below altitude 10° 06:45:08 10° 83° (E) 1,827 7.4 -6.0°
Sets 06:47:47 0° 80° (E) 2,997 8.5 -5.6°
